Flag for U.S.A. Weather past 2 weeks in Los Angeles, California, U.S.A.

Now
61 °F

Fog.


Feels Like: 61 °F
Forecast: 60 / 81 °F
Wind: No wind

Location: Los Angeles / USC Campus Downtown

Current Time: May 30, 2015 at 8:50:58 AM

Latest Report: May 30, 2015 at 7:47 AM


Visibility: 2 mi

Pressure: 29.95 "Hg

Humidity: 87%

Dew point: 57 °F

Location of Los AngelesLocation

Historic Weather in Los Angeles — Graph

°F

Los Angeles temperature yesterday

Maximum temperature yesterday: 75 °F (at 12:47 PM)
Minimum temperature yesterday: 59 °F (at 12:47 AM)
Average temperature yesterday: 65 °F

Past Weeks' High & Low Weather Summary

 TemperatureHumidityPressure
High75 °F (May 29, 12:47 PM)93% (May 30, 1:47 AM)30.08 "Hg (May 30, 1:47 AM)
Low56 °F (May 15, 6:47 AM)47% (May 20, 12:47 PM)29.83 "Hg (May 15, 4:47 PM)
Average63 °F70%29.97 "Hg
* Reported May 15 6:47 AM — May 30 6:47 AM, Los Angeles, Weather by CustomWeather, © 2015

Note: Actual official high and low records may vary slightly from our data, if they occured in-between our weather recording intervals... More about our weather records

Advertising

Los Angeles weather history for previous 24 hours

 ConditionsComfort  
Time TempWeatherWind HumidityBarometerVisibility
6:47 AM
Sat, May 30
60 °FFog.No wind90%29.93 "Hg2 mi
5:47 AM60 °FFog.No wind90%29.91 "Hg2 mi
4:58 AM60 °FFog.No wind90%29.91 "Hg3 mi
4:47 AM59 °FFog.No wind93%29.90 "Hg2 mi
4:02 AM60 °FFog.No wind90%29.91 "Hg2 mi
3:47 AM59 °FFog.No wind93%29.90 "Hg2 mi
3:01 AM59 °FFog.No wind93%29.91 "Hg2 mi
2:47 AM59 °FFog.No wind93%29.91 "Hg3 mi
2:04 AM59 °FFog.No wind93%29.92 "Hg2 mi
1:58 AM59 °FFog.No wind93%29.92 "Hg3 mi
1:47 AM59 °FFog.No wind93%29.91 "Hg2 mi
12:58 AM59 °FFog.No wind90%29.93 "Hg4 mi
12:47 AM59 °FFog.No wind90%29.93 "Hg4 mi
11:47 PM
Fri, May 29
60 °FFog.No wind86%29.92 "Hg6 mi
10:47 PM60 °FClear.No wind86%29.92 "Hg8 mi
9:47 PM61 °FClear.No wind83%29.91 "Hg9 mi
8:47 PM62 °FSunny.No wind83%29.90 "Hg9 mi
7:47 PM64 °FSunny.3 mph78%29.89 "Hg10 mi
6:47 PM67 °FSunny.3 mph73%29.88 "Hg8 mi
5:47 PM70 °FSunny.3 mph64%29.87 "Hg8 mi
4:47 PM73 °FSunny.5 mph57%29.87 "Hg7 mi
3:47 PM73 °FSunny.No wind59%29.89 "Hg8 mi
2:47 PM73 °FSunny.5 mph57%29.90 "Hg6 mi
1:47 PM74 °FSunny.3 mph57%29.92 "Hg6 mi
12:47 PM75 °FSunny.7 mph55%29.92 "Hg5 mi
11:47 AM74 °FSunny.No wind56%29.93 "Hg4 mi
10:47 AM71 °FSunny.No wind61%29.94 "Hg4 mi
9:47 AM67 °FOvercast.No wind68%29.95 "Hg3 mi
8:47 AM63 °FOvercast.No wind78%29.96 "Hg3 mi
Weather by CustomWeather, © 2015

See weather overviewHow to use our weather pages